Location: Stigler
(35.2540°N, 95.1230°W)
Time: 20:30:23
(UTC-05:00)

Geosat - Pass Details

Date: 26 September 2017
Orbit: 763 x 766 km, 108.0° (Epoch: 19 October)

Event Time Altitude Azimuth Distance (km) Brightness Sun altitude
Exits shadow 20:19:22 - 149° (SSE) 2,484 6.3 -14.7°
Reaches altitude 10° 20:19:50 10° 149° (SSE) 2,293 6.1 -14.8°
Maximum altitude 20:24:49 77° 64° (ENE) 787 3.9 -15.8°
Drops below altitude 10° 20:29:51 10° 339° (NNW) 2,308 6.9 -16.9°
Sets 20:32:08 0° 338° (NNW) 3,238 7.7 -17.3°
